Weather History for Hallock, MN

Change the Weather History Date:

Thursday, May 9, 2013

  Actual Average Record
Temperature  
Mean Temperature 48 °F -  
Max Temperature 62 °F 62 °F 91 °F (1985)
Min Temperature 33 °F 38 °F 20 °F (1945)
Degree Days  
Heating Degree Days 18    
Moisture  
Dew Point 24 °F    
Average Humidity 44    
Maximum Humidity 75    
Minimum Humidity 18    
Precipitation  
Precipitation 0.00 in - - ()
Sea Level Pressure  
Sea Level Pressure 30.23 in    
Wind  
Wind Speed 11 mph (NE)    
Max Wind Speed 17 mph    
Max Gust Speed 24 mph    
Visibility 10 miles    
Events      
Averages and records for this station are not official NWS values.
T = Trace of Precipitation, MM = Missing Value Source: NWS Daily Summary

Daily Weather History Graph

Daily Weather History Graph

Search for Another Location

Airport:

Trip Planner

Search our weather history database for the weather conditions in past years. The results will help you decide how hot, cold, wet, or windy it might be!

Date:

Astronomy

May. 09, 2013 Rise Set
Actual Time 5:54 AM CDT 8:54 PM CDT
Civil Twilight 5:17 AM CDT 9:31 PM CDT
Nautical Twilight 4:30 AM CDT 10:19 PM CDT
Astronomical Twilight 3:31 AM CDT 11:19 PM CDT
Moon 5:42 AM CDT (5/9) 8:50 PM CDT (5/9)
Length of Visible Light 16h 14m
Length of Day
15h 00m
Waning Crescent, 0% of the Moon is Illuminated
May 9
Waning Crescent
May 9
New
May 17
First Quarter
May 24
Full
May 31
Last Quarter

Hourly Weather History & Observations

Time (CDT) Temp. Windchill Dew Point Humidity Pressure Visibility Wind Dir Wind Speed Gust Speed Precip Events Conditions
12:13 AM 39.2 °F 32.0 °F 28.4 °F 65% 30.20 in 10.0 mi North 11.5 mph - N/A   Clear
12:33 AM 39.2 °F 32.0 °F 28.4 °F 65% 30.20 in 10.0 mi North 11.5 mph - N/A   Clear
12:53 AM 39.2 °F 31.6 °F 28.4 °F 65% 30.21 in 10.0 mi North 12.7 mph - N/A   Clear
1:13 AM 37.4 °F 29.3 °F 28.4 °F 70% 30.21 in 10.0 mi North 12.7 mph - N/A   Clear
1:33 AM 37.4 °F 29.3 °F 28.4 °F 70% 30.21 in 10.0 mi North 12.7 mph - N/A   Clear
1:53 AM 37.4 °F 29.3 °F 28.4 °F 70% 30.21 in 10.0 mi North 12.7 mph - N/A   Clear
2:13 AM 35.6 °F 27.1 °F 28.4 °F 75% 30.21 in 10.0 mi North 12.7 mph - N/A   Clear
2:33 AM 35.6 °F 28.0 °F 28.4 °F 75% 30.21 in 10.0 mi North 10.4 mph - N/A   Clear
2:53 AM 35.6 °F 28.0 °F 26.6 °F 70% 30.21 in 10.0 mi North 10.4 mph - N/A   Clear
3:13 AM 35.6 °F 27.5 °F 26.6 °F 70% 30.22 in 10.0 mi North 11.5 mph - N/A   Clear
3:33 AM 35.6 °F 27.5 °F 26.6 °F 70% 30.22 in 10.0 mi North 11.5 mph - N/A   Clear
3:53 AM 35.6 °F 27.1 °F 26.6 °F 70% 30.22 in 10.0 mi North 12.7 mph - N/A   Clear
4:13 AM 35.6 °F 27.5 °F 26.6 °F 70% 30.22 in 10.0 mi North 11.5 mph - N/A   Clear
4:33 AM 33.8 °F 24.8 °F 26.6 °F 75% 30.22 in 10.0 mi North 12.7 mph - N/A   Clear
4:53 AM 33.8 °F 25.8 °F 26.6 °F 75% 30.22 in 10.0 mi North 10.4 mph - N/A   Clear
5:13 AM 33.8 °F 25.8 °F 26.6 °F 75% 30.23 in 10.0 mi North 10.4 mph - N/A   Clear
5:33 AM 33.8 °F 25.3 °F 26.6 °F 75% 30.23 in 10.0 mi North 11.5 mph - N/A   Clear
5:53 AM 33.8 °F 25.8 °F 26.6 °F 75% 30.24 in 10.0 mi North 10.4 mph - N/A   Clear
6:13 AM 33.8 °F 26.4 °F 26.6 °F 75% 30.25 in 10.0 mi NNE 9.2 mph - N/A   Clear
6:33 AM 33.8 °F 26.4 °F 26.6 °F 75% 30.25 in 10.0 mi North 9.2 mph - N/A   Clear
6:53 AM 33.8 °F 26.4 °F 26.6 °F 75% 30.25 in 10.0 mi NNE 9.2 mph - N/A   Clear
7:13 AM 35.6 °F 28.6 °F 26.6 °F 70% 30.26 in 10.0 mi NNE 9.2 mph - N/A   Clear
7:33 AM 37.4 °F 29.8 °F 26.6 °F 65% 30.27 in 10.0 mi NNE 11.5 mph - N/A   Clear
7:53 AM 39.2 °F 32.0 °F 26.6 °F 61% 30.27 in 10.0 mi NNE 11.5 mph - N/A   Clear
8:13 AM 41.0 °F 33.9 °F 26.6 °F 57% 30.27 in 10.0 mi NNE 12.7 mph - N/A   Clear
8:33 AM 42.8 °F 36.6 °F 26.6 °F 53% 30.28 in 10.0 mi NNE 11.5 mph - N/A   Clear
8:53 AM 44.6 °F 38.8 °F 26.6 °F 49% 30.28 in 10.0 mi NE 11.5 mph - N/A   Clear
9:13 AM 46.4 °F 41.5 °F 26.6 °F 46% 30.28 in 10.0 mi NNE 10.4 mph - N/A   Clear
9:33 AM 48.2 °F - 26.6 °F 43% 30.28 in 10.0 mi NNE 11.5 mph - N/A   Clear
9:53 AM 48.2 °F - 26.6 °F 43% 30.28 in 10.0 mi NE 12.7 mph - N/A   Clear
10:33 AM 51.8 °F - 24.8 °F 35% 30.28 in 10.0 mi ENE 10.4 mph - N/A   Clear
10:53 AM 53.6 °F - 23.0 °F 30% 30.28 in 10.0 mi NE 12.7 mph 16.1 mph N/A   Clear
11:13 AM 53.6 °F - 23.0 °F 30% 30.28 in 10.0 mi NNE 12.7 mph 17.3 mph N/A   Clear
11:33 AM 53.6 °F - 23.0 °F 30% 30.28 in 10.0 mi NE 10.4 mph 16.1 mph N/A   Clear
12:13 PM 55.4 °F - 24.8 °F 31% 30.27 in 10.0 mi NNE 8.1 mph 19.6 mph N/A   Clear
12:33 PM 55.4 °F - 23.0 °F 29% 30.27 in 10.0 mi NE 12.7 mph 18.4 mph N/A   Clear
12:53 PM 57.2 °F - 21.2 °F 25% 30.27 in 10.0 mi ENE 15.0 mph - N/A   Clear
1:13 PM 57.2 °F - 21.2 °F 25% 30.26 in 10.0 mi NNE 12.7 mph 20.7 mph N/A   Clear
1:33 PM 59.0 °F - 21.2 °F 23% 30.25 in 10.0 mi ENE 6.9 mph 18.4 mph N/A   Clear
1:53 PM 60.8 °F - 21.2 °F 22% 30.25 in 10.0 mi NE 9.2 mph 18.4 mph N/A   Clear
2:13 PM 60.8 °F - 21.2 °F 22% 30.24 in 10.0 mi ENE 9.2 mph 21.9 mph N/A   Clear
2:33 PM 60.8 °F - 19.4 °F 20% 30.24 in 10.0 mi NE 15.0 mph 20.7 mph N/A   Clear
2:53 PM 60.8 °F - 19.4 °F 20% 30.23 in 10.0 mi NE 11.5 mph 16.1 mph N/A   Clear
3:13 PM 62.6 °F - 19.4 °F 19% 30.22 in 10.0 mi NNE 12.7 mph 18.4 mph N/A   Clear
3:33 PM 62.6 °F - 19.4 °F 19% 30.22 in 10.0 mi ENE 11.5 mph 21.9 mph N/A   Clear
3:53 PM 62.6 °F - 19.4 °F 19% 30.21 in 10.0 mi NE 17.3 mph 21.9 mph N/A   Clear
4:13 PM 62.6 °F - 19.4 °F 19% 30.20 in 10.0 mi NE 16.1 mph 24.2 mph N/A   Clear
4:33 PM 62.6 °F - 19.4 °F 19% 30.19 in 10.0 mi ENE 9.2 mph 17.3 mph N/A   Clear
4:53 PM 62.6 °F - 17.6 °F 18% 30.19 in 10.0 mi East 9.2 mph - N/A   Clear
5:13 PM 62.6 °F - 17.6 °F 18% 30.19 in 10.0 mi East 15.0 mph - N/A   Clear
5:33 PM 62.6 °F - 19.4 °F 19% 30.19 in 10.0 mi East 12.7 mph 18.4 mph N/A   Clear
5:53 PM 62.6 °F - 17.6 °F 18% 30.19 in 10.0 mi East 10.4 mph - N/A   Clear
6:13 PM 60.8 °F - 19.4 °F 20% 30.19 in 10.0 mi ENE 11.5 mph 16.1 mph N/A   Clear
6:33 PM 60.8 °F - 19.4 °F 20% 30.19 in 10.0 mi ENE 12.7 mph 16.1 mph N/A   Clear
6:53 PM 60.8 °F - 19.4 °F 20% 30.19 in 10.0 mi East 9.2 mph 16.1 mph N/A   Clear
7:13 PM 60.8 °F - 19.4 °F 20% 30.18 in 10.0 mi ENE 10.4 mph - N/A   Clear
7:33 PM 59.0 °F - 19.4 °F 22% 30.18 in 10.0 mi ENE 10.4 mph - N/A   Clear
7:53 PM 59.0 °F - 21.2 °F 23% 30.18 in 10.0 mi East 11.5 mph - N/A   Clear
8:13 PM 57.2 °F - 21.2 °F 25% 30.19 in 10.0 mi ESE 10.4 mph - N/A   Clear
8:33 PM 55.4 °F - 21.2 °F 26% 30.19 in 10.0 mi ESE 10.4 mph - N/A   Clear
8:53 PM 53.6 °F - 21.2 °F 28% 30.20 in 10.0 mi East 6.9 mph - N/A   Clear
9:13 PM 50.0 °F - 21.2 °F 32% 30.20 in 10.0 mi East 6.9 mph - N/A   Clear
9:33 PM 48.2 °F - 24.8 °F 40% 30.21 in 10.0 mi East 6.9 mph - N/A   Clear
9:53 PM 48.2 °F - 23.0 °F 37% 30.21 in 10.0 mi East 8.1 mph - N/A   Clear
10:13 PM 46.4 °F 42.9 °F 24.8 °F 43% 30.21 in 10.0 mi East 6.9 mph - N/A   Clear
10:53 PM 46.4 °F 41.9 °F 24.8 °F 43% 30.21 in 10.0 mi East 9.2 mph - N/A   Clear
11:13 PM 44.6 °F 40.2 °F 24.8 °F 46% 30.20 in 10.0 mi East 8.1 mph - N/A   Clear
11:33 PM 42.8 °F 38.6 °F 26.6 °F 53% 30.20 in 10.0 mi East 6.9 mph - N/A   Clear
11:53 PM 42.8 °F 38.6 °F 26.6 °F 53% 30.20 in 10.0 mi East 6.9 mph - N/A   Clear